TimeAKDT,TemperatureF,Dew PointF,Humidity,Sea Level PressureIn,VisibilityMPH,Wind Direction,Wind SpeedMPH,Gust SpeedMPH,PrecipitationIn,Events,Conditions,WindDirDegrees,DateUTC
12:16 AM,46.4,46.4,100,30.06,5.0,South,27.6,31.1,N/A,,Overcast,190,2012-10-01 08:16:00
12:36 AM,46.4,46.4,100,30.07,5.0,South,23.0,-,N/A,,Overcast,190,2012-10-01 08:36:00
12:56 AM,46.4,46.4,100,30.06,5.0,South,26.5,29.9,N/A,,Overcast,190,2012-10-01 08:56:00
1:16 AM,48.2,46.4,93,30.07,5.0,South,21.9,33.4,N/A,,Overcast,190,2012-10-01 09:16:00
1:56 AM,48.2,46.4,93,30.08,10.0,SSW,15.0,25.3,N/A,,Overcast,200,2012-10-01 09:56:00
2:16 AM,48.2,46.4,93,30.08,10.0,SSW,18.4,26.5,N/A,,Overcast,200,2012-10-01 10:16:00
2:36 AM,48.2,46.4,93,30.08,10.0,South,18.4,24.2,N/A,,Overcast,190,2012-10-01 10:36:00
2:56 AM,48.2,46.4,93,30.09,10.0,SSW,17.3,23.0,N/A,,Overcast,200,2012-10-01 10:56:00
3:16 AM,48.2,46.4,93,30.09,8.0,SSW,19.6,25.3,N/A,,Overcast,200,2012-10-01 11:16:00
3:36 AM,48.2,44.6,87,30.09,10.0,SW,21.9,31.1,N/A,,Overcast,220,2012-10-01 11:36:00
3:56 AM,48.2,44.6,87,30.10,8.0,SSW,17.3,23.0,N/A,,Overcast,210,2012-10-01 11:56:00
4:16 AM,48.2,46.4,93,30.10,10.0,SSW,17.3,26.5,N/A,,Overcast,200,2012-10-01 12:16:00
4:36 AM,48.2,44.6,87,30.10,10.0,SSW,17.3,25.3,N/A,,Overcast,210,2012-10-01 12:36:00
4:56 AM,48.2,44.6,87,30.11,10.0,SSW,16.1,19.6,N/A,,Overcast,210,2012-10-01 12:56:00
5:16 AM,48.2,44.6,87,30.12,10.0,SSW,11.5,16.1,N/A,,Overcast,210,2012-10-01 13:16:00
5:36 AM,48.2,44.6,87,30.11,10.0,South,16.1,25.3,N/A,,Overcast,180,2012-10-01 13:36:00
5:56 AM,48.2,44.6,87,30.12,10.0,South,10.4,21.9,N/A,,Overcast,180,2012-10-01 13:56:00
6:16 AM,48.2,44.6,87,30.13,10.0,SSW,6.9,18.4,N/A,,Overcast,200,2012-10-01 14:16:00
6:36 AM,48.2,44.6,87,30.12,10.0,SSW,18.4,24.2,N/A,,Overcast,200,2012-10-01 14:36:00
6:56 AM,48.2,44.6,87,30.13,10.0,South,13.8,23.0,N/A,,Overcast,190,2012-10-01 14:56:00
7:16 AM,48.2,44.6,87,30.13,10.0,SSW,11.5,20.7,N/A,,Overcast,200,2012-10-01 15:16:00
7:36 AM,48.2,44.6,87,30.14,10.0,South,11.5,23.0,N/A,,Overcast,190,2012-10-01 15:36:00
7:56 AM,48.2,42.8,82,30.14,10.0,SSE,11.5,18.4,N/A,,Overcast,160,2012-10-01 15:56:00
8:16 AM,48.2,44.6,87,30.15,10.0,SSE,10.4,24.2,N/A,,Overcast,160,2012-10-01 16:16:00
8:36 AM,48.2,44.6,87,30.15,10.0,South,12.7,-,N/A,,Overcast,180,2012-10-01 16:36:00
8:56 AM,48.2,44.6,87,30.15,10.0,South,15.0,18.4,N/A,,Overcast,180,2012-10-01 16:56:00
9:16 AM,48.2,42.8,82,30.15,10.0,South,12.7,27.6,N/A,,Overcast,180,2012-10-01 17:16:00
9:36 AM,48.2,44.6,87,30.15,10.0,South,16.1,19.6,N/A,,Overcast,180,2012-10-01 17:36:00
9:56 AM,48.2,44.6,87,30.16,10.0,South,15.0,23.0,N/A,,Overcast,180,2012-10-01 17:56:00
10:16 AM,48.2,44.6,87,30.16,10.0,South,16.1,21.9,N/A,,Overcast,190,2012-10-01 18:16:00
10:36 AM,48.2,44.6,87,30.16,10.0,South,17.3,-,N/A,,Overcast,190,2012-10-01 18:36:00
10:56 AM,48.2,44.6,87,30.15,10.0,South,20.7,-,N/A,,Overcast,180,2012-10-01 18:56:00
11:16 AM,48.2,46.4,93,30.16,10.0,South,20.7,-,N/A,,Overcast,190,2012-10-01 19:16:00
11:56 AM,48.2,46.4,93,30.14,10.0,South,24.2,-,N/A,,Overcast,180,2012-10-01 19:56:00
12:16 PM,48.2,44.6,87,30.15,10.0,South,26.5,29.9,N/A,,Overcast,180,2012-10-01 20:16:00
12:36 PM,48.2,44.6,87,30.14,9.0,South,24.2,31.1,N/A,,Overcast,180,2012-10-01 20:36:00
12:56 PM,48.2,44.6,87,30.15,9.0,South,26.5,32.2,N/A,,Overcast,180,2012-10-01 20:56:00
1:16 PM,48.2,46.4,93,30.14,9.0,South,27.6,35.7,N/A,,Overcast,180,2012-10-01 21:16:00
1:36 PM,48.2,46.4,93,30.15,9.0,South,27.6,31.1,N/A,,Overcast,180,2012-10-01 21:36:00
1:56 PM,48.2,46.4,93,30.15,9.0,South,26.5,34.5,N/A,,Mostly Cloudy,180,2012-10-01 21:56:00
2:16 PM,48.2,46.4,93,30.14,10.0,South,26.5,29.9,N/A,,Mostly Cloudy,180,2012-10-01 22:16:00
2:36 PM,48.2,46.4,93,30.14,9.0,South,25.3,31.1,N/A,,Mostly Cloudy,180,2012-10-01 22:36:00
2:56 PM,48.2,46.4,93,30.13,10.0,South,26.5,33.4,N/A,,Mostly Cloudy,180,2012-10-01 22:56:00
3:16 PM,48.2,44.6,87,30.13,8.0,South,27.6,34.5,N/A,,Overcast,170,2012-10-01 23:16:00
3:36 PM,48.2,44.6,87,30.13,8.0,South,25.3,31.1,N/A,,Overcast,180,2012-10-01 23:36:00
3:56 PM,48.2,42.8,82,30.14,10.0,South,18.4,25.3,N/A,,Overcast,180,2012-10-01 23:56:00
4:16 PM,48.2,44.6,87,30.13,10.0,South,21.9,25.3,N/A,,Overcast,170,2012-10-02 00:16:00
4:36 PM,48.2,44.6,87,30.13,10.0,South,21.9,29.9,N/A,,Overcast,170,2012-10-02 00:36:00
4:56 PM,48.2,42.8,82,30.12,10.0,South,21.9,28.8,N/A,,Mostly Cloudy,180,2012-10-02 00:56:00
5:16 PM,46.4,42.8,87,30.11,7.0,South,27.6,33.4,N/A,,Mostly Cloudy,180,2012-10-02 01:16:00
5:36 PM,46.4,42.8,87,30.10,8.0,South,26.5,32.2,N/A,,Mostly Cloudy,170,2012-10-02 01:36:00
5:56 PM,48.2,44.6,87,30.11,10.0,South,20.7,-,N/A,,Mostly Cloudy,170,2012-10-02 01:56:00
6:16 PM,48.2,44.6,87,30.09,10.0,South,25.3,29.9,N/A,,Mostly Cloudy,180,2012-10-02 02:16:00
6:36 PM,48.2,42.8,82,30.09,10.0,South,24.2,-,N/A,,Mostly Cloudy,170,2012-10-02 02:36:00
6:56 PM,48.2,42.8,82,30.09,10.0,South,24.2,29.9,N/A,,Overcast,170,2012-10-02 02:56:00
7:16 PM,46.4,44.6,93,30.08,4.0,South,21.9,27.6,N/A,,Overcast,170,2012-10-02 03:16:00
7:36 PM,46.4,44.6,93,30.07,4.0,SSE,28.8,34.5,N/A,,Overcast,160,2012-10-02 03:36:00
8:16 PM,46.4,44.6,93,30.08,4.0,SSE,20.7,-,N/A,,Overcast,160,2012-10-02 04:16:00
8:36 PM,46.4,44.6,93,30.07,10.0,SSE,12.7,24.2,N/A,,Overcast,150,2012-10-02 04:36:00
8:56 PM,46.4,44.6,93,30.06,10.0,SSE,20.7,28.8,N/A,,Overcast,150,2012-10-02 04:56:00
9:16 PM,46.4,44.6,93,30.04,10.0,SSE,19.6,36.8,N/A,,Overcast,150,2012-10-02 05:16:00
9:36 PM,46.4,44.6,93,30.04,10.0,SSE,21.9,28.8,N/A,,Overcast,150,2012-10-02 05:36:00
9:56 PM,46.4,44.6,93,30.04,10.0,SSE,23.0,31.1,N/A,,Overcast,150,2012-10-02 05:56:00
10:16 PM,46.4,44.6,93,30.02,8.0,SSE,31.1,35.7,N/A,,Overcast,160,2012-10-02 06:16:00
10:36 PM,46.4,44.6,93,30.01,5.0,SSE,25.3,38.0,N/A,,Overcast,160,2012-10-02 06:36:00
10:56 PM,46.4,44.6,93,30.01,10.0,SSE,19.6,31.1,N/A,,Overcast,150,2012-10-02 06:56:00
11:16 PM,46.4,42.8,87,29.99,7.0,SSE,23.0,38.0,N/A,,Mostly Cloudy,160,2012-10-02 07:16:00
11:36 PM,46.4,44.6,93,29.99,6.0,SSE,32.2,41.4,N/A,,Overcast,160,2012-10-02 07:36:00
11:56 PM,46.4,44.6,93,29.99,10.0,SSE,20.7,32.2,N/A,,Overcast,150,2012-10-02 07:56:00